Regional Weather Roundup
Issued by NWS Midland/Odessa, TX

Home | Current Version | Previous Version | Text Only | Print | Product List | Glossary On
Versions: 1 2 3 4 5 6 7 8 9 10 11 12 13 14 15 16 17 18 19 20 21 22 23 24 25 26 27 28 29 30 31 32 33 34 35 36 37 38 39 40 41 42 43 44 45 46 47 48 49 50
000
ASUS44 KMAF 252310
RWRMAF
MIDLAND AREA WEATHER ROUNDUP
NATIONAL WEATHER SERVICE MIDLAND TX
500 PM CST SUN JAN 25 2015

...IN SOUTHWEST TEXAS AND SOUTHEAST NEW MEXICO...

CITY           SKY/WX    TMP DP  RH WIND       PRES   REMARKS
ALPINE         PTSUNNY   55  29  36 E6        30.30S
ANDREWS        FAIR      59  26  28 NE3       30.24S
ARTESIA        SUNNY     57  28  33 SE12      30.24F
BIG SPRING     SUNNY     64  26  24 N3        30.24S
CARLSBAD       SUNNY     60  23  24 SE10      30.22F
DRYDEN           N/A     65  26  23 CALM      30.20S
FORT STOCKTON  MOSUNNY   59  28  30 E6        30.24R
GUAD PASS      NOT AVBL
HOBBS          SUNNY     57  25  28 CALM      30.25S
MARFA          MOSUNNY   54  25  32 E5        30.27R
MIDLAND AIRPK  SUNNY     62  26  25 N6        30.23F
MIDLAND INTL   SUNNY     62  27  26 N7        30.22F
ODESSA         SUNNY     61  24  24 NE3       30.24S
PECOS          SUNNY     61  27  26 CALM      30.23F
PRESIDIO       FAIR      62  30  30 CALM      30.19F
SEMINOLE       SUNNY     59  28  31 CALM      30.25S
SNYDER         SUNNY    N/A N/A N/A N9        30.21R
WINK           SUNNY     63  18  17 VRB5      30.22S
$$
...OTHER STATIONS IN TEXAS...

CITY           SKY/WX    TMP DP  RH WIND       PRES   REMARKS
ABILENE        SUNNY     63  26  24 N18       30.18R
AMARILLO       SUNNY     51  33  50 W12       30.19S
AUSTIN         PTSUNNY   68  31  25 N14       30.10R
BROWNSVILLE    MOSUNNY   68  49  50 W7        30.12R
CORPUS CHRISTI CLOUDY    67  47  48 NW8       30.09R
DALLAS FTW     PTCLDY    62  24  23 NW20G25   30.06R
DEL RIO        MOSUNNY   68  36  30 W12       30.17S
EL PASO        PTSUNNY   62  24  23 NE5       30.19R
HOUSTON INT    PTCLDY    66  43  43 W9        30.02S
LUBBOCK        MOSUNNY   58  30  34 N10       30.21R
SAN ANGELO     SUNNY     64  31  28 N9        30.20R
SAN ANTONIO    PTSUNNY   70  29  21 NE10      30.13R
WACO           SUNNY     65  25  22 NW14      30.09R
WICHITA FALLS  NOT AVBL
$$
...OTHER LOCATIONS IN NEW MEXICO...

CITY           SKY/WX    TMP DP  RH WIND       PRES   REMARKS
ALAMAGORDO     SUNNY     57  23  26 CALM      30.22F
ALBUQUERQUE    MOSUNNY   53  21  28 SW3       30.24F
CANNON AFB     SUNNY     49  29  47 VRB2      30.23S
CLOVIS         SUNNY     50  30  46 NW5       30.24R
HOLLOMAN AFB   SUNNY     56  25  31 CALM      30.21F
ROSWELL        SUNNY     57  29  34 S10       30.23S
RUIDOSO        SUNNY     48  23  37 NE5       30.28R
SANTA FE       SUNNY     51  18  27 W13       30.23S
TRUTH OR CONSE SUNNY     58  19  22 VRB5      30.21F
TUCUMCARI      SUNNY     49  33  54 S12       30.21S
$$


USA.gov is the U.S. government's official web portal to all federal, state and local government web resources and services.